Погода в Харыялахе

Россия / Республика Саха (Якутия)     63°28′25″N   120°09′10″E
темп.,
°C
ветер,
м/с
пор.,
м/с
влажн.,
%
обл.,
%
осадки,
мм/ч
давл.,
гПа
погр.,
м
27 февраля, сб
сб2700:00−32всв239994 0.0 102872
03:00−32всв249988 0.0 102787
06:00−33всв229991 0.0 102730
09:00−32всв269895 0.0 1026163
12:00−29всв249699 0.0 1026250
15:00−27ссв2396100 0.0 1024339
18:00−27св1398100 0.2 1025305
21:00−27ссз1299100 0.8 102483
28 февраля, вс
вс2800:00−28сз1399100 0.4 102495
03:00−28зсз2598100 0.6 1024209
06:00−28зсз3797100 0.1 1025333
09:00−28з3795100 0.3 1026489
12:00−27з4792100 0.1 1027462
15:00−27з4891100 0.1 1027504
18:00−27з3992100 0.0 1029502
21:00−29з3995100 0.0 1030248
1 марта, пн
пн100:00−30з3894100 0.0 1030221
03:00−33з2595100 0.0 103095
06:00−34з269599 0.0 1031134
09:00−35зюз2696100 0.0 1031154
12:00−31з2593100 0.0 1030341
15:00−28з2591100 0.0 1029406
18:00−31з229592 0.0 102919
21:00−34зюз129685 0.0 102919
2 марта, вт
вт200:00−36з119957 0.0 102919
03:00−37з1110059 0.0 102819
06:00−38з0110058 0.0 102819
09:00−38зсз119852 0.0 102819
12:00−31с119263 0.0 1027263
15:00−29ссв118980 0.0 1027363
18:00−32ссв1194100 0.0 102719
21:00−35ссв1197100 0.0 102819
3 марта, ср
ср300:00−35ссв1297100 0.0 102819
03:00−37с119897 0.0 102819
06:00−39ссз119961 0.0 102818
09:00−38сз129867 0.0 102818
12:00−32сз1293100 0.0 1027294
15:00−30зсз2493100 0.1 1026467
18:00−30сз2695100 0.1 1026488
21:00−31зсз2697100 0.2 1026370